Location: San Vito
(41.8833°N, 12.9833°E)
Time: 11:01:49
(UTC+00:00)

Cosmos 2058 - Pass Details

Date: 17 November 2019
Orbit: 562 x 585 km, 82.5° (Epoch: 05 December)

Event Time Altitude Azimuth Distance (km) Brightness Sun altitude
Exits shadow 04:05:30 25° 350° (N) 1,200 4.3 -21.2°
Drops below altitude 10° 04:07:22 10° 359° (N) 1,909 5.5 -20.8°
Sets 04:09:37 0° 4° (N) 2,810 6.4 -20.4°
